(118457) = 1999 WP6 = 2001 FD94

Discovered at Visnjan on 1999-11-28 by K. Korlevic.

Orbit

Orbit type: Main Belt

Note: WebGL enabled browser required.

epoch2024-03-31.0
epoch JD2460400.5
perihelion date2022-09-22.18798
perihelion JD2459844.68798
argument of perihelion (°)37.38568
ascending node (°)89.81456
inclination (°)7.29560
eccentricity0.1488340
perihelion distance (AU)2.6526208
Tisserand w.r.t. Jupiter3.2
ΔV w.r.t. Earth (km/sec)10.4
semimajor axis (AU)3.1164553
mean anomaly (°)99.57274
mean daily motion (°/day)0.17914820
aphelion distance (AU)3.580
period (years)5.5
P-vector [x]-0.59968694
P-vector [y]0.70011456
P-vector [z]0.38757604
Q-vector [x]-0.79009473
Q-vector [y]-0.59486705
Q-vector [z]-0.14793073
absolute magnitude14.92
phase slope0.15
uncertainty0
referenceMPEC 2024-D06
observations used1092
oppositions16
arc length (days)8646
first opposition used1999
last opposition used2023
residual rms (arc-secs)0.63
perturbers coarse indicatorM-v
perturbers precise indicator003Ek
first observation date used1999-11-04.0
last observation date used2023-07-07.0
computer nameMPCLINUX
JD of orbit computation2456937.371997
perihelion JD uncertainty (days)1.1191E-04
argument of perihelion uncertainty (°)3.9673E-05
ascending node uncertainty (°)3.5365E-05
inclination uncertainty (°)4.5593E-06
eccentricity uncertainty 4.1448E-08
perihelion distance uncertainty (AU)1.2855E-07
Minimum Orbit Intersection Distances (in AU)
for orbit epoch: 2460400.5, reference: E2024-D06
Mercury2.31816
Venus1.93464
Earth1.67301
Mars1.00862
Jupiter1.52238
Saturn6.16191
Uranus15.661
Neptune26.5129

Observations

1110 total observations over interval: 1999 11 04.40179 – 2023 07 07.291794
These data are available for download (format description).

Date (UT) J2000 RA J2000 Dec Magn Location Ref
1999 11 04.40179 04 48 30.72 +17 23 36.0 19.0   704 – Lincoln Laboratory ETS, New Mexico MPS 8819
1999 11 04.41800 04 48 30.18 +17 23 35.6 19.3   704 – Lincoln Laboratory ETS, New Mexico MPS 8819
1999 11 04.46687 04 48 28.49 +17 23 35.9 19.4   704 – Lincoln Laboratory ETS, New Mexico MPS 8819
1999 11 15.38136 04 41 13.70 +17 23 45.3 19.2   704 – Lincoln Laboratory ETS, New Mexico MPS 8819
1999 11 15.39570 04 41 13.04 +17 23 46.9 18.8   704 – Lincoln Laboratory ETS, New Mexico MPS 8819
1999 11 15.42440 04 41 11.65 +17 23 47.6 19.1   704 – Lincoln Laboratory ETS, New Mexico MPS 8819
1999 11 28.90290 04 29 44.64 +17 25 29.7 18.7   120 – Visnjan MPS 7910
1999 11 28.92124 04 29 43.64 +17 25 29.7   120 – Visnjan MPS 7910
1999 11 29.83223 04 28 54.25 +17 25 42.6 18.9   120 – Visnjan MPS 7910
1999 11 29.85468 04 28 52.95 +17 25 43.3   120 – Visnjan MPS 7910
1999 11 29.87360 04 28 51.99 +17 25 44.1   120 – Visnjan MPS 7910
1999 12 06.87025 04 22 31.04 +17 28 12.3 18.6   120 – Visnjan MPS 7910
1999 12 06.88998 04 22 29.99 +17 28 13.7   120 – Visnjan MPS 7910
1999 12 07.22765 04 22 11.81 +17 28 24.8 18.9   704 – Lincoln Laboratory ETS, New Mexico MPS 7910
1999 12 07.24221 04 22 10.97 +17 28 24.7 19.0   704 – Lincoln Laboratory ETS, New Mexico MPS 7910
1999 12 07.25678 04 22 10.18 +17 28 24.8 19.3   704 – Lincoln Laboratory ETS, New Mexico MPS 7910
1999 12 07.27135 04 22 09.37 +17 28 25.5 19.1   704 – Lincoln Laboratory ETS, New Mexico MPS 7910
1999 12 07.28586 04 22 08.58 +17 28 25.7 18.9   704 – Lincoln Laboratory ETS, New Mexico MPS 7910
2000 01 05.15086 04 02 19.60 +18 01 52.0 19.4   704 – Lincoln Laboratory ETS, New Mexico MPS 8819
2000 01 05.18004 04 02 18.93 +18 01 54.7 19.3   704 – Lincoln Laboratory ETS, New Mexico MPS 8819
2000 01 05.19456 04 02 18.56 +18 01 56.2 19.8   704 – Lincoln Laboratory ETS, New Mexico MPS 8819
2000 01 05.20907 04 02 18.22 +18 01 58.6 19.1   704 – Lincoln Laboratory ETS, New Mexico MPS 8819
2000 01 06.16409 04 01 57.42 +18 03 55.9 19.7   704 – Lincoln Laboratory ETS, New Mexico MPS 8819
2000 01 06.19326 04 01 56.63 +18 03 59.4 20.1   704 – Lincoln Laboratory ETS, New Mexico MPS 8819
2000 01 06.20788 04 01 56.30 +18 04 00.4 19.8   704 – Lincoln Laboratory ETS, New Mexico MPS 8819
2001 02 16.36831 12 23 11.44 +08 52 51.6 18.5   704 – Lincoln Laboratory ETS, New Mexico MPS 28439
2001 02 16.38248 12 23 11.08 +08 52 55.9 19.0   704 – Lincoln Laboratory ETS, New Mexico MPS 28439
2001 02 16.39662 12 23 10.72 +08 53 02.1 19.0   704 – Lincoln Laboratory ETS, New Mexico MPS 28439
2001 02 16.41080 12 23 10.46 +08 53 06.6 19.1   704 – Lincoln Laboratory ETS, New Mexico MPS 28439
2001 02 16.42511 12 23 10.12 +08 53 11.5 19.2   704 – Lincoln Laboratory ETS, New Mexico MPS 28439
2001 03 16.27361 12 06 14.68 +11 33 30.7 18.4   704 – Lincoln Laboratory ETS, New Mexico MPS 28439
2001 03 16.28648 12 06 14.00 +11 33 36.2 18.2   704 – Lincoln Laboratory ETS, New Mexico MPS 28439
2001 03 16.30004 12 06 13.33 +11 33 40.6 18.1   704 – Lincoln Laboratory ETS, New Mexico MPS 28439
2001 03 18.25488 12 04 43.52 +11 43 39.9 17.8 R 699 – Lowell Observatory-LONEOS MPS 28439
2001 03 18.29554 12 04 41.58 +11 43 53.5   699 – Lowell Observatory-LONEOS MPS 28439
2001 03 18.33607 12 04 39.61 +11 44 04.9   699 – Lowell Observatory-LONEOS MPS 28439
2001 03 18.37671 12 04 37.68 +11 44 16.5   699 – Lowell Observatory-LONEOS MPS 28439
2001 03 27.18593 11 57 54.15 +12 23 14.7 18.5 R 699 – Lowell Observatory-LONEOS MPS 28439
2001 03 27.19530 11 57 53.70 +12 23 17.3   699 – Lowell Observatory-LONEOS MPS 28439
2001 03 27.20465 11 57 53.27 +12 23 19.1   699 – Lowell Observatory-LONEOS MPS 28439
2001 03 27.21400 11 57 52.86 +12 23 20.8   699 – Lowell Observatory-LONEOS MPS 28439
2001 03 29.33111 11 56 19.11 +12 31 01.5 20.5   608 – Haleakala-AMOS MPS 28439
2001 03 29.34210 11 56 18.61 +12 31 03.2 20.0   608 – Haleakala-AMOS MPS 28439
2001 03 29.35280 11 56 18.12 +12 31 05.6 20.5   608 – Haleakala-AMOS MPS 28439
2001 03 31.26610 11 54 55.17 +12 37 21.5 18.0   704 – Lincoln Laboratory ETS, New Mexico MPS 28439
2001 03 31.28047 11 54 54.51 +12 37 23.9 18.6   704 – Lincoln Laboratory ETS, New Mexico MPS 28439
2001 03 31.29484 11 54 53.90 +12 37 27.8 18.7   704 – Lincoln Laboratory ETS, New Mexico MPS 28439
2001 03 31.30920 11 54 53.24 +12 37 29.6 18.4   704 – Lincoln Laboratory ETS, New Mexico MPS 28439
2001 03 31.32369 11 54 52.61 +12 37 32.6 18.5   704 – Lincoln Laboratory ETS, New Mexico MPS 28439
2004 09 24.397627 01 49 29.970 +00 41 28.91 19.87 V 645 – Apache Point-Sloan Digital Sky Survey MPS 389887
2004 09 24.401099 01 49 29.847 +00 41 28.05 20.60   645 – Apache Point-Sloan Digital Sky Survey MPS 389887
2004 10 05.27935 01 42 28.12 -00 06 11.3 18.7   644 – Palomar Mountain/NEAT MPS 116363
2004 10 05.35456 01 42 24.79 -00 06 31.1 18.9   644 – Palomar Mountain/NEAT MPS 116363
2004 10 05.42087 01 42 21.87 -00 06 48.3 18.9   644 – Palomar Mountain/NEAT MPS 116363
2004 10 07.28577 01 41 01.13 -00 14 50.9 19.4   704 – Lincoln Laboratory ETS, New Mexico MPS 116363
2004 10 07.29646 01 41 00.57 -00 14 54.8 20.0   704 – Lincoln Laboratory ETS, New Mexico MPS 116363
2004 10 07.30716 01 41 00.11 -00 14 57.8 20.1   704 – Lincoln Laboratory ETS, New Mexico MPS 116363
2004 10 07.31785 01 40 59.59 -00 15 00.1 19.9   704 – Lincoln Laboratory ETS, New Mexico MPS 116363
2004 10 07.32852 01 40 59.14 -00 15 02.0 20.0   704 – Lincoln Laboratory ETS, New Mexico MPS 116363
2004 10 18.25127 01 32 38.52 -00 58 52.4 19.0   704 – Lincoln Laboratory ETS, New Mexico MPS 117446
2004 10 18.26254 01 32 37.89 -00 58 54.9 19.5   704 – Lincoln Laboratory ETS, New Mexico MPS 117446
2004 10 18.27383 01 32 37.42 -00 58 56.6 19.1   704 – Lincoln Laboratory ETS, New Mexico MPS 117446
2004 10 18.28512 01 32 36.91 -00 58 59.9 19.6   704 – Lincoln Laboratory ETS, New Mexico MPS 117446
2004 10 18.29640 01 32 36.32 -00 59 01.9 19.4   704 – Lincoln Laboratory ETS, New Mexico MPS 117446
2004 11 20.19400 01 11 21.81 -01 52 07.5 18.8 R 703 – Catalina Sky Survey MPS 120327
2004 11 20.20288 01 11 21.60 -01 52 05.0 19.4 R 703 – Catalina Sky Survey MPS 120327
2004 11 20.21595 01 11 21.06 -01 52 05.3 18.8 R 703 – Catalina Sky Survey MPS 120327
2004 11 20.22480 01 11 20.93 -01 52 04.1 18.5 R 703 – Catalina Sky Survey MPS 120327
2005 10 02.47508 07 44 21.73 +21 39 56.1 20.9 V 691 – Steward Observatory, Kitt Peak-Spacewatch MPS 143306
2005 10 02.49111 07 44 22.92 +21 39 54.8 20.7 V 691 – Steward Observatory, Kitt Peak-Spacewatch MPS 143306
2005 10 02.50368 07 44 23.89 +21 39 54.3 20.6 V 691 – Steward Observatory, Kitt Peak-Spacewatch MPS 143306
2005 10 06.45940 07 49 22.54 +21 34 43.9 20.9 V 691 – Steward Observatory, Kitt Peak-Spacewatch MPS 143306
2005 10 06.47177 07 49 23.48 +21 34 43.3 20.8 V 691 – Steward Observatory, Kitt Peak-Spacewatch MPS 143306
2005 10 06.48770 07 49 24.63 +21 34 42.1 20.7 V 691 – Steward Observatory, Kitt Peak-Spacewatch MPS 143306
2005 10 13.43492 07 57 40.06 +21 26 21.6 20.1 V 691 – Steward Observatory, Kitt Peak-Spacewatch MPS 143306
2005 10 13.44739 07 57 40.92 +21 26 20.7 20.3 V 691 – Steward Observatory, Kitt Peak-Spacewatch MPS 143306
2005 10 13.45989 07 57 41.73 +21 26 20.0 20.7 V 691 – Steward Observatory, Kitt Peak-Spacewatch MPS 143306
2005 10 27.49199 08 12 14.14 +21 14 45.9 20.2 V G96 – Mt. Lemmon Survey MPS 145781
2005 10 27.49849 08 12 14.50 +21 14 46.1 20.3 V G96 – Mt. Lemmon Survey MPS 145781
2005 10 27.50527 08 12 14.86 +21 14 45.9 20.1 V G96 – Mt. Lemmon Survey MPS 145781
2005 10 27.51198 08 12 15.26 +21 14 45.7 20.2 V G96 – Mt. Lemmon Survey MPS 145781
2005 10 28.41841 08 13 05.12 +21 14 22.1 19.6 V 703 – Catalina Sky Survey MPS 145781
2005 10 28.42488 08 13 05.26 +21 14 20.9 20.3 V 703 – Catalina Sky Survey MPS 145781
2005 10 28.43142 08 13 05.77 +21 14 21.6 20.4 V 703 – Catalina Sky Survey MPS 145781
2005 10 28.43798 08 13 06.02 +21 14 20.7 20.0 V 703 – Catalina Sky Survey MPS 145781
2005 12 05.43539 08 32 04.05 +22 03 13.2 19.5 V G96 – Mt. Lemmon Survey MPS 155109
2005 12 05.44423 08 32 04.09 +22 03 14.9 19.5 V G96 – Mt. Lemmon Survey MPS 155109
2005 12 05.45305 08 32 04.05 +22 03 16.7 19.6 V G96 – Mt. Lemmon Survey MPS 155109
